Вернуться в каталог

SL-16 DEB

АктивенLEO
NORAD 23709·DEBRIS·🇷🇺 Russia

Запущен Oct 31, 1995 с Baikonur Cosmodrome

Loading…

Ближайшие Пролёты (ближайшие 24 часа)

TLE

СвежийSource: Space-Track

Эпоха: Sep 14, 2026, 13:21 UTC

1 23709U 95058F   26257.55651718  .00000072  00000-0  10551-3 0  9992
2 23709  71.0362 288.0010 0198318 224.5271 213.2153 13.74801892548012

Отслеживайте SL-16 DEB в реальном времени с AllMySat

Download on the App Store